Regional Weather Roundup
Issued by NWS

Home | Current Version | Previous Version | Graphics & Text | Print | Product List | Glossary On
Versions: 1 2 3 4 5 6 7 8 9 10 11 12 13 14 15 16 17 18 19 20 21 22 23 24 25 26 27 28 29 30 31 32 33 34 35 36 37 38 39 40 41 42 43 44 45 46 47 48 49 50
000
ASUS45 KBOU 262107
RWRCO

WEATHER ROUNDUP FOR COLORADO
NATIONAL WEATHER SERVICE DENVER/BOULDER CO
300 PM MDT TUE MAY 26 2015

NOTE: "FAIR" INDICATES FEW OR NO CLOUDS BELOW 12000 FEET WITH NO
SIGNIFICANT WEATHER AND/OR OBSTRUCTIONS TO VISIBILITY.

COZ001>005-013-030-031-262200-
...NORTHWEST COLORADO...

CITY           SKY/WX    TMP DP  RH WIND       PRES   REMARKS
CRAIG          CLOUDY    53  46  77 S18       30.10F
HAYDEN         CLOUDY    46  41  81 SW14      30.14R
MEEKER         CLOUDY    56  46  69 E7        30.11F
MOUNT WERNER   NOT AVBL
STEAMBOAT SPGS   N/A    N/A N/A N/A S6        30.16R
WALDEN         MOSUNNY   55  34  44 NW9       30.15S
$$

COZ006>008-011-262200-
...WEST CENTRAL VALLEYS...

CITY           SKY/WX    TMP DP  RH WIND       PRES   REMARKS
GRAND JUNCTION PTSUNNY   67  42  40 SE9       30.00F
MONTROSE       LGT RAIN  58  44  60 E12       30.11S
EAGLE          PTSUNNY   61  43  51 SW22G35   30.11R
RIFLE          CLOUDY    66  47  50 S12       30.05F
DELTA          CLOUDY    66  43  42 MISG      30.08R
NUCLA          CLOUDY    55  45  67 W13       30.14S
$$

COZ017>023-064>068-262200-
...SOUTHWEST COLORADO...

CITY           SKY/WX    TMP DP  RH WIND       PRES   REMARKS
DURANGO        MOSUNNY   68  37  32 W9G23     30.13F
CORTEZ         MOSUNNY   72  39  30 S8        30.09F
PAGOSA SPRINGS CLOUDY    60  37  41 NW8       30.19S THUNDER
TELLURIDE      PTSUNNY   52  39  61 NE5       30.26F
WOLF CREEK PAS NOT AVBL
$$

COZ009-010-012-014-032>034-037-058>063-262200-
...CENTRAL COLORADO...

CITY           SKY/WX    TMP DP  RH WIND       PRES   REMARKS
ASPEN          PTSUNNY   60  38  43 NE7       30.14F
BUENA VISTA    PTSUNNY   65  23  20 W5G20     30.11F
COPPER MTN     MOSUNNY   45  27  49 W10G21    30.33F
BERTHOUD PASS  FAIR      32  25  74 NW13G23   30.36S WCI  22
COTTONWOOD PAS PTSUNNY   61  19  20 SW13      30.22F
GUNNISON       PTSUNNY   63  36  36 SW18G30   30.16S
KREMMLING      PTSUNNY   54  37  54 NE8       30.16F
LEADVILLE      CLOUDY    53  30  41 N15G21    30.21F
MONARCH PASS   MOSUNNY   37  23  56 W23G29    30.44S
SALIDA         MOSUNNY   71  22  15 W9G23     30.17F
SUNLIGHT       RAIN      37  37 100 CALM      30.33R VSB 1/2
WILKERSON PASS PTSUNNY   46  28  49 NW5       30.33S
$$

COZ069>075-262200-
...SAN LUIS VALLEY/SANGRE DE CRISTO MOUNTAINS...

CITY           SKY/WX    TMP DP  RH WIND       PRES   REMARKS
ALAMOSA        MOSUNNY   67  32  27 S12       30.13F
LA VETA PASS   MOSUNNY  N/A N/A N/A MISG      30.28F
SAGUACHE       PTSUNNY   61  32  33 S8        30.15S
$$

COZ035-036-038>040-262200-
...NORTHERN COLORADO FRONT RANGE...

CITY           SKY/WX    TMP DP  RH WIND       PRES   REMARKS
DENVER INTL AP PTSUNNY   70  40  33 E9        30.01F
DMNS CITY PARK   N/A     68  35  28 E2        30.00R
AURORA         PTSUNNY   70  40  33 E5        30.03F
FRONT RANGE AP PTSUNNY   68  43  40 CALM      30.03F
ERIE MUNI ARPT   N/A     69  39  33 SE6       30.00S
BOULDER MUN AP LGT RAIN  61  43  51 SW5       30.03R
CENTENNIAL     PTSUNNY   68  38  33 CALM      30.03F
BROOMFIELD     LGT RAIN  66  43  42 CALM      30.04
FORT COLLINS   MOSUNNY   70  45  40 CALM      30.00S
LONGMONT       PTSUNNY   68  44  42 NW5       30.03R
$$

COZ041-046-047-076>085-087-088-262200-
...PIKES PEAK/PALMER DIVIDE AND SOUTHERN FOOTHILLS...

CITY           SKY/WX    TMP DP  RH WIND       PRES   REMARKS
COLO. SPRINGS  PTSUNNY   66  42  41 S7        30.08F THUNDER
A. F. ACADEMY  MOSUNNY   63  42  45 S10       30.07F
ELLICOTT       PTSUNNY  N/A N/A N/A S8        30.07F
FALCON         PTSUNNY   62  40  43 S10G20    30.11F
FORT CARSON    MOSUNNY   65  44  44 SE12      30.05S
LIMON          MOSUNNY   65  41  41 VRB3      30.05F
MONUMENT HILL  CLOUDY    57  39  51 E8        30.11S
TRINIDAD       MOSUNNY   70  44  39 E8        30.06F
$$

COZ042>045-048>051-090-091-262200-
...NORTHEAST COLORADO...

CITY           SKY/WX    TMP DP  RH WIND       PRES   REMARKS
GREELEY ARPT   MOSUNNY   72  43  35 SW5       30.00S
AKRON          MOSUNNY   68  44  42 N3        30.02F
BURLINGTON     CLOUDY    68  50  52 NE10      30.01F
WRAY           MOSUNNY   71  48  43 N7        30.00F
STERLING       MOSUNNY   66  50  55 SE5       29.99S
HOLYOKE        MOSUNNY   73  54  49 NE8       30.00F
FORT MORGAN    MOSUNNY   71  43  37 E7        30.01F
$$

COZ086-089-092>099-262200-
...SOUTHEAST COLORADO...

CITY           SKY/WX    TMP DP  RH WIND       PRES   REMARKS
PUEBLO         MOSUNNY   72  43  35 SE8       30.00F
LA JUNTA       SUNNY     74  45  35 CALM      30.00F
LAMAR          SUNNY     76  50  40 NW7       29.98F
SPRINGFIELD      N/A     72  48  42 NE6       30.02F
$$



USA.gov is the U.S. government's official web portal to all federal, state and local government web resources and services.